Time,TemperatureF,DewpointF,PressureIn,WindDirection,WindDirectionDegrees,WindSpeedMPH,WindSpeedGustMPH,Humidity,HourlyPrecipIn,Conditions,Clouds,dailyrainin,SoftwareType,DateUTC
2013-06-05 00:02:00,61.0,52.7,30.13,East,95,0.0,10.0,74,0.00,,,0.00,Wunderground v.1.15,2013-06-05 04:02:00,
2013-06-05 00:04:00,61.1,53.8,30.13,East,95,0.0,10.0,77,0.00,,,0.00,Wunderground v.1.15,2013-06-05 04:04:00,
2013-06-05 00:06:00,61.2,53.6,30.13,East,95,0.0,10.0,76,0.00,,,0.00,Wunderground v.1.15,2013-06-05 04:06:00,
2013-06-05 00:08:00,61.3,53.7,30.13,East,95,0.0,10.0,76,0.00,,,0.00,Wunderground v.1.15,2013-06-05 04:08:00,
2013-06-05 00:14:00,61.3,53.7,30.12,East,95,0.0,10.0,76,0.00,,,0.00,Wunderground v.1.15,2013-06-05 04:14:00,
2013-06-05 00:20:00,61.1,54.2,30.12,East,95,0.0,10.0,78,0.00,,,0.00,Wunderground v.1.15,2013-06-05 04:20:00,
2013-06-05 00:26:00,60.9,54.0,30.12,East,95,0.0,10.0,78,0.00,,,0.00,Wunderground v.1.15,2013-06-05 04:26:00,
2013-06-05 00:32:00,60.7,53.8,30.12,East,95,0.0,10.0,78,0.00,,,0.00,Wunderground v.1.15,2013-06-05 04:32:00,
2013-06-05 00:38:00,60.5,53.6,30.12,East,95,0.0,10.0,78,0.00,,,0.00,Wunderground v.1.15,2013-06-05 04:38:00,
2013-06-05 00:44:00,60.4,53.9,30.12,East,95,0.0,10.0,79,0.00,,,0.00,Wunderground v.1.15,2013-06-05 04:44:00,
2013-06-05 00:50:00,60.2,53.0,30.11,East,95,0.0,10.0,77,0.00,,,0.00,Wunderground v.1.15,2013-06-05 04:50:00,
2013-06-05 00:56:00,60.3,53.4,30.11,East,95,0.0,10.0,78,0.00,,,0.00,Wunderground v.1.15,2013-06-05 04:56:00,
2013-06-05 01:02:00,60.4,53.5,30.11,East,95,0.0,10.0,78,0.00,,,0.00,Wunderground v.1.15,2013-06-05 05:02:00,
2013-06-05 01:06:00,60.4,54.2,30.11,East,95,0.0,10.0,80,0.00,,,0.00,Wunderground v.1.15,2013-06-05 05:06:00,
2013-06-05 01:12:00,60.2,53.7,30.11,East,95,0.0,10.0,79,0.00,,,0.00,Wunderground v.1.15,2013-06-05 05:12:00,
2013-06-05 01:18:00,59.6,52.7,30.11,East,95,0.0,10.0,78,0.00,,,0.00,Wunderground v.1.15,2013-06-05 05:18:00,
2013-06-05 01:24:00,59.5,53.0,30.11,East,95,0.0,10.0,79,0.00,,,0.00,Wunderground v.1.15,2013-06-05 05:24:00,
2013-06-05 01:30:00,59.8,52.9,30.11,East,95,0.0,10.0,78,0.00,,,0.00,Wunderground v.1.15,2013-06-05 05:30:00,
2013-06-05 01:36:00,60.1,52.9,30.11,East,95,0.0,10.0,77,0.00,,,0.00,Wunderground v.1.15,2013-06-05 05:36:00,
2013-06-05 01:42:00,60.3,53.1,30.11,East,95,0.0,10.0,77,0.00,,,0.00,Wunderground v.1.15,2013-06-05 05:42:00,
2013-06-05 01:48:00,60.1,53.6,30.11,East,95,0.0,10.0,79,0.00,,,0.00,Wunderground v.1.15,2013-06-05 05:48:00,
2013-06-05 01:54:00,60.0,52.8,30.11,East,95,0.0,10.0,77,0.00,,,0.00,Wunderground v.1.15,2013-06-05 05:54:00,
2013-06-05 02:00:00,59.9,53.0,30.11,East,95,0.0,10.0,78,0.00,,,0.00,Wunderground v.1.15,2013-06-05 06:00:00,
2013-06-05 02:06:00,60.1,52.9,30.12,East,95,0.0,10.0,77,0.00,,,0.00,Wunderground v.1.15,2013-06-05 06:06:00,
2013-06-05 02:12:00,60.1,53.2,30.11,East,95,0.0,10.0,78,0.00,,,0.00,Wunderground v.1.15,2013-06-05 06:12:00,
2013-06-05 02:18:00,59.9,53.0,30.11,East,95,0.0,10.0,78,0.00,,,0.00,Wunderground v.1.15,2013-06-05 06:18:00,
2013-06-05 02:24:00,60.0,53.1,30.12,East,95,0.0,10.0,78,0.00,,,0.00,Wunderground v.1.15,2013-06-05 06:24:00,
2013-06-05 02:30:00,59.5,53.0,30.11,East,95,0.0,10.0,79,0.00,,,0.00,Wunderground v.1.15,2013-06-05 06:30:00,
2013-06-05 02:36:00,59.6,53.1,30.11,East,95,0.0,10.0,79,0.00,,,0.00,Wunderground v.1.15,2013-06-05 06:36:00,
2013-06-05 02:42:00,59.6,53.1,30.12,East,95,0.0,10.0,79,0.00,,,0.00,Wunderground v.1.15,2013-06-05 06:42:00,
2013-06-05 02:48:00,59.8,53.6,30.12,East,95,0.0,10.0,80,0.00,,,0.00,Wunderground v.1.15,2013-06-05 06:48:00,
2013-06-05 02:54:00,60.0,53.8,30.12,East,95,1.0,10.0,80,0.00,,,0.00,Wunderground v.1.15,2013-06-05 06:54:00,
2013-06-05 03:00:00,60.0,53.8,30.12,East,95,1.0,1.0,80,0.00,,,0.00,Wunderground v.1.15,2013-06-05 07:00:00,
2013-06-05 03:06:00,59.9,54.1,30.12,East,95,0.0,10.0,81,0.00,,,0.00,Wunderground v.1.15,2013-06-05 07:06:00,
2013-06-05 03:12:00,59.6,53.4,30.12,East,95,0.0,10.0,80,0.00,,,0.00,Wunderground v.1.15,2013-06-05 07:12:00,
2013-06-05 03:18:00,59.3,53.5,30.11,East,95,0.0,10.0,81,0.00,,,0.00,Wunderground v.1.15,2013-06-05 07:18:00,
2013-06-05 03:24:00,59.2,53.7,30.11,East,95,0.0,10.0,82,0.00,,,0.00,Wunderground v.1.15,2013-06-05 07:24:00,
2013-06-05 03:30:00,59.0,53.8,30.11,East,95,0.0,10.0,83,0.00,,,0.00,Wunderground v.1.15,2013-06-05 07:30:00,
2013-06-05 03:36:00,59.0,54.2,30.11,East,95,0.0,10.0,84,0.00,,,0.00,Wunderground v.1.15,2013-06-05 07:36:00,
2013-06-05 03:42:00,59.0,54.2,30.12,East,95,0.0,10.0,84,0.00,,,0.00,Wunderground v.1.15,2013-06-05 07:42:00,
2013-06-05 03:48:00,59.0,54.5,30.12,East,95,0.0,10.0,85,0.00,,,0.00,Wunderground v.1.15,2013-06-05 07:48:00,
2013-06-05 03:54:00,59.0,54.5,30.11,East,95,0.0,10.0,85,0.00,,,0.00,Wunderground v.1.15,2013-06-05 07:54:00,
2013-06-05 04:00:00,58.9,54.7,30.12,East,95,0.0,10.0,86,0.00,,,0.00,Wunderground v.1.15,2013-06-05 08:00:00,
2013-06-05 04:06:00,58.8,54.6,30.12,East,95,0.0,10.0,86,0.00,,,0.00,Wunderground v.1.15,2013-06-05 08:06:00,
2013-06-05 04:12:00,58.7,54.8,30.11,East,95,0.0,10.0,87,0.00,,,0.00,Wunderground v.1.15,2013-06-05 08:12:00,
2013-06-05 04:18:00,58.9,55.4,30.11,East,95,0.0,10.0,88,0.00,,,0.00,Wunderground v.1.15,2013-06-05 08:18:00,
2013-06-05 04:24:00,59.0,55.4,30.11,East,95,1.0,10.0,88,0.00,,,0.00,Wunderground v.1.15,2013-06-05 08:24:00,
2013-06-05 04:30:00,59.0,55.8,30.12,East,95,0.0,10.0,89,0.00,,,0.00,Wunderground v.1.15,2013-06-05 08:30:00,
2013-06-05 04:36:00,59.0,55.8,30.12,East,95,0.0,10.0,89,0.00,,,0.00,Wunderground v.1.15,2013-06-05 08:36:00,
2013-06-05 04:42:00,59.0,55.8,30.12,East,95,0.0,10.0,89,0.00,,,0.00,Wunderground v.1.15,2013-06-05 08:42:00,
2013-06-05 04:48:00,59.0,55.8,30.12,East,95,0.0,10.0,89,0.00,,,0.00,Wunderground v.1.15,2013-06-05 08:48:00,
2013-06-05 04:54:00,58.9,56.0,30.12,East,95,0.0,10.0,90,0.00,,,0.00,Wunderground v.1.15,2013-06-05 08:54:00,
2013-06-05 05:00:00,58.7,55.8,30.12,East,95,0.0,10.0,90,0.00,,,0.00,Wunderground v.1.15,2013-06-05 09:00:00,
2013-06-05 05:06:00,58.6,55.7,30.12,East,95,0.0,10.0,90,0.00,,,0.00,Wunderground v.1.15,2013-06-05 09:06:00,
2013-06-05 05:12:00,58.6,55.7,30.12,East,95,0.0,10.0,90,0.00,,,0.00,Wunderground v.1.15,2013-06-05 09:12:00,
2013-06-05 05:18:00,58.5,55.6,30.12,East,95,0.0,10.0,90,0.00,,,0.00,Wunderground v.1.15,2013-06-05 09:18:00,
2013-06-05 05:24:00,58.4,55.5,30.13,East,95,0.0,10.0,90,0.00,,,0.00,Wunderground v.1.15,2013-06-05 09:24:00,
2013-06-05 05:30:00,58.3,55.7,30.13,East,95,0.0,10.0,91,0.00,,,0.00,Wunderground v.1.15,2013-06-05 09:30:00,
2013-06-05 05:36:00,58.2,55.6,30.13,East,95,0.0,10.0,91,0.00,,,0.00,Wunderground v.1.15,2013-06-05 09:36:00,
2013-06-05 05:42:00,58.2,55.6,30.13,East,95,0.0,10.0,91,0.00,,,0.00,Wunderground v.1.15,2013-06-05 09:42:00,
2013-06-05 05:48:00,58.1,55.5,30.13,East,95,0.0,10.0,91,0.00,,,0.00,Wunderground v.1.15,2013-06-05 09:48:00,
2013-06-05 05:54:00,58.1,55.5,30.13,SW,219,0.0,10.0,91,0.00,,,0.00,Wunderground v.1.15,2013-06-05 09:54:00,
2013-06-05 06:00:00,58.1,55.8,30.13,SW,219,0.0,10.0,92,0.00,,,0.00,Wunderground v.1.15,2013-06-05 10:00:00,
2013-06-05 06:06:00,58.3,56.0,30.13,SW,219,0.0,10.0,92,0.00,,,0.00,Wunderground v.1.15,2013-06-05 10:06:00,
2013-06-05 06:12:00,58.3,56.0,30.14,SW,219,0.0,10.0,92,0.00,,,0.00,Wunderground v.1.15,2013-06-05 10:12:00,
2013-06-05 06:18:00,58.3,56.0,30.14,SW,219,0.0,10.0,92,0.00,,,0.00,Wunderground v.1.15,2013-06-05 10:18:00,
2013-06-05 06:24:00,58.2,55.9,30.14,SW,219,0.0,10.0,92,0.00,,,0.00,Wunderground v.1.15,2013-06-05 10:24:00,
2013-06-05 06:30:00,58.2,55.9,30.14,SW,219,0.0,10.0,92,0.00,,,0.00,Wunderground v.1.15,2013-06-05 10:30:00,
2013-06-05 06:36:00,58.3,56.0,30.15,SW,219,0.0,10.0,92,0.00,,,0.00,Wunderground v.1.15,2013-06-05 10:36:00,
2013-06-05 06:42:00,58.3,56.0,30.15,SW,219,0.0,10.0,92,0.00,,,0.00,Wunderground v.1.15,2013-06-05 10:42:00,
2013-06-05 06:48:00,58.4,56.1,30.16,SW,219,0.0,10.0,92,0.00,,,0.00,Wunderground v.1.15,2013-06-05 10:48:00,
2013-06-05 06:54:00,58.6,56.3,30.16,SW,219,0.0,10.0,92,0.00,,,0.00,Wunderground v.1.15,2013-06-05 10:54:00,
2013-06-05 07:00:00,59.0,56.7,30.15,SW,219,0.0,10.0,92,0.00,,,0.00,Wunderground v.1.15,2013-06-05 11:00:00,
2013-06-05 07:06:00,59.0,56.7,30.16,SW,219,0.0,10.0,92,0.00,,,0.00,Wunderground v.1.15,2013-06-05 11:06:00,
2013-06-05 07:12:00,59.3,57.0,30.16,SW,219,0.0,10.0,92,0.00,,,0.00,Wunderground v.1.15,2013-06-05 11:12:00,
2013-06-05 07:18:00,59.9,57.6,30.16,SW,219,0.0,10.0,92,0.00,,,0.00,Wunderground v.1.15,2013-06-05 11:18:00,
2013-06-05 07:24:00,60.7,58.1,30.16,SW,219,0.0,10.0,91,0.00,,,0.00,Wunderground v.1.15,2013-06-05 11:24:00,
2013-06-05 07:30:00,61.2,58.6,30.16,SW,219,0.0,10.0,91,0.00,,,0.00,Wunderground v.1.15,2013-06-05 11:30:00,
2013-06-05 07:36:00,61.6,58.6,30.16,SW,219,0.0,10.0,90,0.00,,,0.00,Wunderground v.1.15,2013-06-05 11:36:00,
2013-06-05 07:42:00,62.1,59.1,30.16,SW,219,0.0,10.0,90,0.00,,,0.00,Wunderground v.1.15,2013-06-05 11:42:00,
2013-06-05 07:48:00,62.6,59.0,30.16,SSE,151,0.0,10.0,88,0.00,,,0.00,Wunderground v.1.15,2013-06-05 11:48:00,
2013-06-05 07:54:00,63.0,59.4,30.16,SE,141,1.0,10.0,88,0.00,,,0.00,Wunderground v.1.15,2013-06-05 11:54:00,
2013-06-05 08:00:00,63.0,59.4,30.16,East,96,1.0,1.0,88,0.00,,,0.00,Wunderground v.1.15,2013-06-05 12:00:00,
2013-06-05 08:06:00,63.6,60.0,30.16,East,96,0.0,10.0,88,0.00,,,0.00,Wunderground v.1.15,2013-06-05 12:06:00,
2013-06-05 08:12:00,64.0,60.1,30.16,East,96,0.0,10.0,87,0.00,,,0.00,Wunderground v.1.15,2013-06-05 12:12:00,
2013-06-05 08:18:00,64.5,59.9,30.16,East,96,0.0,10.0,85,0.00,,,0.00,Wunderground v.1.15,2013-06-05 12:18:00,
2013-06-05 08:24:00,65.0,60.0,30.16,East,96,0.0,10.0,84,0.00,,,0.00,Wunderground v.1.15,2013-06-05 12:24:00,
2013-06-05 08:30:00,66.1,59.0,30.16,East,96,0.0,10.0,78,0.00,,,0.00,Wunderground v.1.15,2013-06-05 12:30:00,
2013-06-05 08:36:00,66.6,58.8,30.16,ESE,107,0.0,10.0,76,0.00,,,0.00,Wunderground v.1.15,2013-06-05 12:36:00,
2013-06-05 08:42:00,66.6,58.1,30.16,SSE,163,1.0,10.0,74,0.00,,,0.00,Wunderground v.1.15,2013-06-05 12:42:00,
2013-06-05 08:48:00,67.5,58.9,30.16,SSE,163,1.0,10.0,74,0.00,,,0.00,Wunderground v.1.15,2013-06-05 12:48:00,
2013-06-05 08:54:00,67.8,59.6,30.16,SSE,163,1.0,10.0,75,0.00,,,0.00,Wunderground v.1.15,2013-06-05 12:54:00,
2013-06-05 09:00:00,68.8,59.4,30.15,South,189,1.0,10.0,72,0.00,,,0.00,Wunderground v.1.15,2013-06-05 13:00:00,
2013-06-05 09:06:00,69.0,58.8,30.15,East,88,1.0,10.0,70,0.00,,,0.00,Wunderground v.1.15,2013-06-05 13:06:00,
2013-06-05 09:12:00,68.8,55.7,30.15,SSE,150,2.0,10.0,63,0.00,,,0.00,Wunderground v.1.15,2013-06-05 13:12:00,
2013-06-05 09:18:00,68.6,56.4,30.15,South,172,2.0,10.0,65,0.00,,,0.00,Wunderground v.1.15,2013-06-05 13:18:00,
2013-06-05 09:24:00,69.1,56.8,30.15,SSE,163,1.0,10.0,65,0.00,,,0.00,Wunderground v.1.15,2013-06-05 13:24:00,
2013-06-05 09:30:00,69.8,57.1,30.15,South,180,1.0,10.0,64,0.00,,,0.00,Wunderground v.1.15,2013-06-05 13:30:00,
2013-06-05 09:36:00,69.3,58.3,30.15,ESE,113,2.0,10.0,68,0.00,,,0.00,Wunderground v.1.15,2013-06-05 13:36:00,
2013-06-05 09:42:00,69.7,58.3,30.15,SE,133,2.0,7.0,67,0.00,,,0.00,Wunderground v.1.15,2013-06-05 13:42:00,
2013-06-05 09:48:00,69.6,59.4,30.15,SE,141,2.0,10.0,70,0.00,,,0.00,Wunderground v.1.15,2013-06-05 13:48:00,
2013-06-05 09:54:00,69.9,59.3,30.16,South,180,2.0,10.0,69,0.00,,,0.00,Wunderground v.1.15,2013-06-05 13:54:00,
2013-06-05 10:00:00,70.6,61.5,30.16,SE,130,2.0,10.0,73,0.00,,,0.00,Wunderground v.1.15,2013-06-05 14:00:00,
2013-06-05 10:06:00,71.0,61.1,30.15,ESE,105,2.0,10.0,71,0.00,,,0.00,Wunderground v.1.15,2013-06-05 14:06:00,
2013-06-05 10:12:00,71.5,61.2,30.15,ESE,107,2.0,3.0,70,0.00,,,0.00,Wunderground v.1.15,2013-06-05 14:12:00,
2013-06-05 10:18:00,71.5,61.2,30.15,SSE,154,1.0,10.0,70,0.00,,,0.00,Wunderground v.1.15,2013-06-05 14:18:00,
2013-06-05 10:24:00,71.4,61.1,30.15,SSW,204,2.0,10.0,70,0.00,,,0.00,Wunderground v.1.15,2013-06-05 14:24:00,
2013-06-05 10:30:00,71.2,60.9,30.15,SSE,159,2.0,10.0,70,0.00,,,0.00,Wunderground v.1.15,2013-06-05 14:30:00,
2013-06-05 10:36:00,71.8,61.5,30.15,SW,229,2.0,10.0,70,0.00,,,0.00,Wunderground v.1.15,2013-06-05 14:36:00,
2013-06-05 10:42:00,72.0,62.1,30.15,SW,229,1.0,10.0,71,0.00,,,0.00,Wunderground v.1.15,2013-06-05 14:42:00,
2013-06-05 10:48:00,73.6,62.8,30.15,SSW,196,1.0,10.0,69,0.00,,,0.00,Wunderground v.1.15,2013-06-05 14:48:00,
2013-06-05 10:54:00,73.0,60.5,30.15,SSW,194,2.0,10.0,65,0.00,,,0.00,Wunderground v.1.15,2013-06-05 14:54:00,
2013-06-05 11:00:00,72.8,60.3,30.15,SSE,165,2.0,2.0,65,0.00,,,0.00,Wunderground v.1.15,2013-06-05 15:00:00,
2013-06-05 11:06:00,72.5,59.6,30.15,South,182,2.0,10.0,64,0.00,,,0.00,Wunderground v.1.15,2013-06-05 15:06:00,
2013-06-05 11:12:00,73.0,61.0,30.15,South,190,1.0,10.0,66,0.00,,,0.00,Wunderground v.1.15,2013-06-05 15:12:00,
2013-06-05 11:18:00,72.9,60.4,30.15,South,171,1.0,10.0,65,0.00,,,0.00,Wunderground v.1.15,2013-06-05 15:18:00,
2013-06-05 11:24:00,72.6,60.2,30.15,ENE,74,3.0,10.0,65,0.00,,,0.00,Wunderground v.1.15,2013-06-05 15:24:00,
2013-06-05 11:30:00,72.6,60.2,30.15,ENE,76,3.0,10.0,65,0.00,,,0.00,Wunderground v.1.15,2013-06-05 15:30:00,
2013-06-05 11:36:00,73.5,60.1,30.14,ENE,71,2.0,10.0,63,0.00,,,0.00,Wunderground v.1.15,2013-06-05 15:36:00,
2013-06-05 11:42:00,73.6,60.2,30.14,SSE,157,2.0,10.0,63,0.00,,,0.00,Wunderground v.1.15,2013-06-05 15:42:00,
2013-06-05 11:48:00,74.0,60.6,30.14,SSW,198,2.0,10.0,63,0.00,,,0.00,Wunderground v.1.15,2013-06-05 15:48:00,
2013-06-05 11:54:00,73.8,60.9,30.13,SSE,147,2.0,10.0,64,0.00,,,0.00,Wunderground v.1.15,2013-06-05 15:54:00,
2013-06-05 12:00:00,73.7,60.3,30.13,East,101,2.0,10.0,63,0.00,,,0.00,Wunderground v.1.15,2013-06-05 16:00:00,
2013-06-05 12:06:00,73.8,60.0,30.13,ESE,113,3.0,10.0,62,0.00,,,0.00,Wunderground v.1.15,2013-06-05 16:06:00,
2013-06-05 12:12:00,73.6,60.2,30.13,SE,128,3.0,10.0,63,0.00,,,0.00,Wunderground v.1.15,2013-06-05 16:12:00,
2013-06-05 12:18:00,74.1,61.1,30.13,ESE,113,2.0,10.0,64,0.00,,,0.00,Wunderground v.1.15,2013-06-05 16:18:00,
2013-06-05 12:24:00,74.5,60.6,30.12,East,86,3.0,10.0,62,0.00,,,0.00,Wunderground v.1.15,2013-06-05 16:24:00,
2013-06-05 12:30:00,74.4,61.4,30.12,ENE,72,3.0,3.0,64,0.00,,,0.00,Wunderground v.1.15,2013-06-05 16:30:00,
2013-06-05 12:36:00,74.5,60.6,30.12,SE,145,2.0,10.0,62,0.00,,,0.00,Wunderground v.1.15,2013-06-05 16:36:00,
2013-06-05 12:42:00,75.2,60.4,30.12,ESE,115,2.0,10.0,60,0.00,,,0.00,Wunderground v.1.15,2013-06-05 16:42:00,
2013-06-05 12:48:00,75.1,60.7,30.11,East,98,3.0,10.0,61,0.00,,,0.00,Wunderground v.1.15,2013-06-05 16:48:00,
2013-06-05 12:54:00,75.0,61.1,30.11,SSW,196,3.0,10.0,62,0.00,,,0.00,Wunderground v.1.15,2013-06-05 16:54:00,
2013-06-05 13:00:00,76.0,62.0,30.11,SSW,192,3.0,10.0,62,0.00,,,0.00,Wunderground v.1.15,2013-06-05 17:00:00,
2013-06-05 13:06:00,75.8,62.3,30.11,East,89,3.0,10.0,63,0.00,,,0.00,Wunderground v.1.15,2013-06-05 17:06:00,
2013-06-05 13:12:00,74.9,60.1,30.11,ENE,73,3.0,3.0,60,0.00,,,0.00,Wunderground v.1.15,2013-06-05 17:12:00,
2013-06-05 13:18:00,75.8,61.4,30.11,East,90,2.0,4.0,61,0.00,,,0.00,Wunderground v.1.15,2013-06-05 17:18:00,
2013-06-05 13:24:00,76.1,61.2,30.11,ESE,115,2.0,2.0,60,0.00,,,0.00,Wunderground v.1.15,2013-06-05 17:24:00,
2013-06-05 13:30:00,76.4,61.5,30.11,ESE,113,2.0,4.0,60,0.00,,,0.00,Wunderground v.1.15,2013-06-05 17:30:00,
2013-06-05 13:36:00,76.6,61.7,30.11,ENE,78,3.0,4.0,60,0.00,,,0.00,Wunderground v.1.15,2013-06-05 17:36:00,
2013-06-05 13:42:00,76.4,61.0,30.10,ESE,120,2.0,3.0,59,0.00,,,0.00,Wunderground v.1.15,2013-06-05 17:42:00,
2013-06-05 13:48:00,76.6,62.6,30.10,ESE,109,2.0,5.0,62,0.00,,,0.00,Wunderground v.1.15,2013-06-05 17:48:00,
2013-06-05 13:54:00,76.9,60.5,30.10,SE,144,2.0,4.0,57,0.00,,,0.00,Wunderground v.1.15,2013-06-05 17:54:00,
2013-06-05 14:00:00,76.4,60.0,30.09,East,86,3.0,4.0,57,0.00,,,0.00,Wunderground v.1.15,2013-06-05 18:00:00,
2013-06-05 14:06:00,77.1,60.2,30.09,East,94,3.0,7.0,56,0.00,,,0.00,Wunderground v.1.15,2013-06-05 18:06:00,
2013-06-05 14:12:00,76.9,59.5,30.09,SSW,192,4.0,7.0,55,0.00,,,0.00,Wunderground v.1.15,2013-06-05 18:12:00,
2013-06-05 14:18:00,77.1,60.2,30.09,SE,136,3.0,7.0,56,0.00,,,0.00,Wunderground v.1.15,2013-06-05 18:18:00,
2013-06-05 14:24:00,77.0,59.6,30.09,ENE,74,3.0,7.0,55,0.00,,,0.00,Wunderground v.1.15,2013-06-05 18:24:00,
2013-06-05 14:30:00,77.3,60.4,30.09,SSE,162,3.0,7.0,56,0.00,,,0.00,Wunderground v.1.15,2013-06-05 18:30:00,
2013-06-05 14:36:00,77.3,59.9,30.09,East,89,3.0,7.0,55,0.00,,,0.00,Wunderground v.1.15,2013-06-05 18:36:00,
2013-06-05 14:42:00,77.7,60.2,30.08,SSW,209,2.0,7.0,55,0.00,,,0.00,Wunderground v.1.15,2013-06-05 18:42:00,
2013-06-05 14:48:00,78.0,61.5,30.08,ESE,115,2.0,7.0,57,0.00,,,0.00,Wunderground v.1.15,2013-06-05 18:48:00,
2013-06-05 14:54:00,77.6,60.2,30.08,SE,130,3.0,7.0,55,0.00,,,0.00,Wunderground v.1.15,2013-06-05 18:54:00,
2013-06-05 15:00:00,77.9,61.9,30.08,SSE,159,3.0,7.0,58,0.00,,,0.00,Wunderground v.1.15,2013-06-05 19:00:00,
2013-06-05 15:06:00,77.7,60.8,30.08,SE,142,3.0,7.0,56,0.00,,,0.00,Wunderground v.1.15,2013-06-05 19:06:00,
2013-06-05 15:12:00,77.7,60.8,30.07,SSE,166,3.0,7.0,56,0.00,,,0.00,Wunderground v.1.15,2013-06-05 19:12:00,
2013-06-05 15:18:00,77.5,60.6,30.07,SSE,156,4.0,7.0,56,0.00,,,0.00,Wunderground v.1.15,2013-06-05 19:18:00,
2013-06-05 15:24:00,77.7,60.8,30.07,East,79,2.0,7.0,56,0.00,,,0.00,Wunderground v.1.15,2013-06-05 19:24:00,
2013-06-05 15:30:00,78.1,61.6,30.07,SSE,161,2.0,7.0,57,0.00,,,0.00,Wunderground v.1.15,2013-06-05 19:30:00,
2013-06-05 15:36:00,78.7,61.2,30.07,WSW,240,2.0,7.0,55,0.00,,,0.00,Wunderground v.1.15,2013-06-05 19:36:00,
2013-06-05 15:42:00,78.6,60.6,30.07,South,171,2.0,7.0,54,0.00,,,0.00,Wunderground v.1.15,2013-06-05 19:42:00,
2013-06-05 15:48:00,78.1,61.1,30.07,SSE,168,2.0,7.0,56,0.00,,,0.00,Wunderground v.1.15,2013-06-05 19:48:00,
2013-06-05 15:54:00,78.2,61.2,30.07,WSW,256,2.0,7.0,56,0.00,,,0.00,Wunderground v.1.15,2013-06-05 19:54:00,
2013-06-05 16:00:00,78.5,61.0,30.07,SSE,165,3.0,7.0,55,0.00,,,0.00,Wunderground v.1.15,2013-06-05 20:00:00,
2013-06-05 16:06:00,78.4,60.9,30.07,South,169,3.0,7.0,55,0.00,,,0.00,Wunderground v.1.15,2013-06-05 20:06:00,
2013-06-05 16:12:00,78.6,62.6,30.06,SSE,166,2.0,3.0,58,0.00,,,0.00,Wunderground v.1.15,2013-06-05 20:12:00,
2013-06-05 16:18:00,79.1,62.1,30.06,ESE,117,2.0,7.0,56,0.00,,,0.00,Wunderground v.1.15,2013-06-05 20:18:00,
2013-06-05 16:24:00,79.2,61.6,30.06,SSE,158,2.0,7.0,55,0.00,,,0.00,Wunderground v.1.15,2013-06-05 20:24:00,
2013-06-05 16:30:00,79.1,61.0,30.06,East,96,1.0,7.0,54,0.00,,,0.00,Wunderground v.1.15,2013-06-05 20:30:00,
2013-06-05 16:36:00,78.4,60.9,30.06,SE,144,2.0,7.0,55,0.00,,,0.00,Wunderground v.1.15,2013-06-05 20:36:00,
2013-06-05 16:42:00,78.4,60.9,30.05,SSE,165,2.0,7.0,55,0.00,,,0.00,Wunderground v.1.15,2013-06-05 20:42:00,
2013-06-05 16:48:00,78.6,60.6,30.06,South,173,2.0,7.0,54,0.00,,,0.00,Wunderground v.1.15,2013-06-05 20:48:00,
2013-06-05 16:54:00,78.1,60.6,30.06,South,188,2.0,7.0,55,0.00,,,0.00,Wunderground v.1.15,2013-06-05 20:54:00,
2013-06-05 17:00:00,78.0,62.0,30.06,ESE,111,1.0,7.0,58,0.00,,,0.00,Wunderground v.1.15,2013-06-05 21:00:00,
2013-06-05 17:06:00,77.8,61.8,30.05,ESE,111,1.0,7.0,58,0.00,,,0.00,Wunderground v.1.15,2013-06-05 21:06:00,
2013-06-05 17:12:00,77.6,61.7,30.05,ESE,103,1.0,7.0,58,0.00,,,0.00,Wunderground v.1.15,2013-06-05 21:12:00,
2013-06-05 17:18:00,77.3,61.9,30.05,ESE,117,2.0,7.0,59,0.00,,,0.00,Wunderground v.1.15,2013-06-05 21:18:00,
2013-06-05 17:24:00,77.1,62.1,30.05,East,87,1.0,7.0,60,0.00,,,0.00,Wunderground v.1.15,2013-06-05 21:24:00,
2013-06-05 17:30:00,77.1,62.6,30.05,East,81,2.0,2.0,61,0.00,,,0.00,Wunderground v.1.15,2013-06-05 21:30:00,
2013-06-05 17:36:00,77.0,63.0,30.05,SE,136,2.0,7.0,62,0.00,,,0.00,Wunderground v.1.15,2013-06-05 21:36:00,
2013-06-05 17:42:00,76.8,62.3,30.05,SSE,158,2.0,7.0,61,0.00,,,0.00,Wunderground v.1.15,2013-06-05 21:42:00,
2013-06-05 17:48:00,76.7,62.7,30.05,East,95,1.0,7.0,62,0.00,,,0.00,Wunderground v.1.15,2013-06-05 21:48:00,
2013-06-05 17:54:00,76.5,62.5,30.06,East,90,1.0,7.0,62,0.00,,,0.00,Wunderground v.1.15,2013-06-05 21:54:00,
2013-06-05 18:00:00,76.3,63.2,30.05,East,90,1.0,7.0,64,0.00,,,0.00,Wunderground v.1.15,2013-06-05 22:00:00,
2013-06-05 18:08:00,76.1,63.0,30.05,East,90,1.0,7.0,64,0.00,,,0.00,Wunderground v.1.15,2013-06-05 22:08:00,
2013-06-05 18:14:00,76.0,63.4,30.05,East,90,1.0,7.0,65,0.00,,,0.00,Wunderground v.1.15,2013-06-05 22:14:00,
2013-06-05 18:20:00,75.9,63.3,30.05,East,90,1.0,7.0,65,0.00,,,0.00,Wunderground v.1.15,2013-06-05 22:20:00,
2013-06-05 18:26:00,75.8,63.2,30.05,East,90,1.0,7.0,65,0.00,,,0.00,Wunderground v.1.15,2013-06-05 22:26:00,
2013-06-05 18:32:00,75.8,62.8,30.05,East,90,1.0,7.0,64,0.00,,,0.00,Wunderground v.1.15,2013-06-05 22:32:00,
2013-06-05 18:38:00,75.6,63.0,30.05,East,90,1.0,7.0,65,0.00,,,0.00,Wunderground v.1.15,2013-06-05 22:38:00,
2013-06-05 18:44:00,75.5,63.3,30.05,East,90,1.0,7.0,66,0.00,,,0.00,Wunderground v.1.15,2013-06-05 22:44:00,
2013-06-05 18:50:00,75.4,63.7,30.05,East,90,1.0,1.0,67,0.00,,,0.00,Wunderground v.1.15,2013-06-05 22:50:00,
2013-06-05 18:56:00,75.4,63.7,30.04,East,90,0.0,7.0,67,0.00,,,0.00,Wunderground v.1.15,2013-06-05 22:56:00,
2013-06-05 19:02:00,75.2,63.5,30.04,East,90,1.0,7.0,67,0.00,,,0.00,Wunderground v.1.15,2013-06-05 23:02:00,
2013-06-05 19:08:00,75.1,63.8,30.04,East,90,1.0,7.0,68,0.00,,,0.00,Wunderground v.1.15,2013-06-05 23:08:00,
2013-06-05 19:14:00,74.9,64.0,30.04,East,90,1.0,7.0,69,0.00,,,0.00,Wunderground v.1.15,2013-06-05 23:14:00,
2013-06-05 19:20:00,74.8,63.9,30.04,East,90,1.0,1.0,69,0.00,,,0.00,Wunderground v.1.15,2013-06-05 23:20:00,
2013-06-05 19:26:00,74.7,63.9,30.04,South,175,1.0,7.0,69,0.00,,,0.00,Wunderground v.1.15,2013-06-05 23:26:00,
2013-06-05 19:32:00,74.6,63.8,30.05,East,101,1.0,4.0,69,0.00,,,0.00,Wunderground v.1.15,2013-06-05 23:32:00,
2013-06-05 19:38:00,74.4,63.6,30.05,East,96,1.0,7.0,69,0.00,,,0.00,Wunderground v.1.15,2013-06-05 23:38:00,
2013-06-05 19:44:00,74.2,63.4,30.05,East,88,2.0,3.0,69,0.00,,,0.00,Wunderground v.1.15,2013-06-05 23:44:00,
2013-06-05 19:50:00,74.0,63.2,30.04,East,85,3.0,7.0,69,0.00,,,0.00,Wunderground v.1.15,2013-06-05 23:50:00,
2013-06-05 19:56:00,73.9,63.1,30.04,ENE,78,2.0,7.0,69,0.00,,,0.00,Wunderground v.1.15,2013-06-05 23:56:00,
2013-06-05 20:02:00,73.7,62.9,30.04,East,92,1.0,3.0,69,0.00,,,0.00,Wunderground v.1.15,2013-06-06 00:02:00,
2013-06-05 20:08:00,73.5,63.1,30.04,SE,131,1.0,7.0,70,0.00,,,0.00,Wunderground v.1.15,2013-06-06 00:08:00,
2013-06-05 20:14:00,73.2,62.8,30.04,East,85,1.0,7.0,70,0.00,,,0.00,Wunderground v.1.15,2013-06-06 00:14:00,
2013-06-05 20:20:00,72.9,62.9,30.04,ENE,71,2.0,2.0,71,0.00,,,0.00,Wunderground v.1.15,2013-06-06 00:20:00,
2013-06-05 20:26:00,72.5,63.0,30.04,ENE,76,2.0,7.0,72,0.00,,,0.00,Wunderground v.1.15,2013-06-06 00:26:00,
2013-06-05 20:32:00,72.2,62.7,30.05,ENE,76,1.0,2.0,72,0.00,,,0.00,Wunderground v.1.15,2013-06-06 00:32:00,
2013-06-05 20:38:00,71.9,62.8,30.05,ENE,76,0.0,7.0,73,0.00,,,0.00,Wunderground v.1.15,2013-06-06 00:38:00,
2013-06-05 20:44:00,71.6,62.5,30.05,ENE,75,0.0,7.0,73,0.00,,,0.00,Wunderground v.1.15,2013-06-06 00:44:00,
2013-06-05 20:50:00,71.3,62.2,30.05,East,96,1.0,1.0,73,0.00,,,0.00,Wunderground v.1.15,2013-06-06 00:50:00,
2013-06-05 20:56:00,71.0,61.5,30.05,SE,128,2.0,7.0,72,0.00,,,0.00,Wunderground v.1.15,2013-06-06 00:56:00,
2013-06-05 21:02:00,71.0,61.1,30.05,ESE,110,2.0,7.0,71,0.00,,,0.00,Wunderground v.1.15,2013-06-06 01:02:00,
2013-06-05 21:08:00,70.9,60.6,30.05,ESE,105,3.0,7.0,70,0.00,,,0.00,Wunderground v.1.15,2013-06-06 01:08:00,
2013-06-05 21:14:00,70.9,60.6,30.05,SSW,207,2.0,7.0,70,0.00,,,0.00,Wunderground v.1.15,2013-06-06 01:14:00,
2013-06-05 21:20:00,70.7,60.4,30.05,SE,134,2.0,7.0,70,0.00,,,0.00,Wunderground v.1.15,2013-06-06 01:20:00,
2013-06-05 21:26:00,70.5,60.2,30.05,East,84,2.0,7.0,70,0.00,,,0.00,Wunderground v.1.15,2013-06-06 01:26:00,
2013-06-05 21:32:00,70.4,60.1,30.05,South,173,3.0,7.0,70,0.00,,,0.00,Wunderground v.1.15,2013-06-06 01:32:00,
2013-06-05 21:38:00,70.4,60.1,30.06,SSE,157,3.0,7.0,70,0.00,,,0.00,Wunderground v.1.15,2013-06-06 01:38:00,
2013-06-05 21:44:00,70.3,60.1,30.06,SE,125,2.0,7.0,70,0.00,,,0.00,Wunderground v.1.15,2013-06-06 01:44:00,
2013-06-05 21:50:00,70.2,60.0,30.06,East,82,2.0,7.0,70,0.00,,,0.00,Wunderground v.1.15,2013-06-06 01:50:00,
2013-06-05 21:56:00,70.1,59.9,30.06,East,88,3.0,7.0,70,0.00,,,0.00,Wunderground v.1.15,2013-06-06 01:56:00,
2013-06-05 22:02:00,70.0,59.4,30.06,SSE,150,3.0,7.0,69,0.00,,,0.00,Wunderground v.1.15,2013-06-06 02:02:00,
2013-06-05 22:08:00,69.8,59.2,30.06,NE,35,2.0,7.0,69,0.00,,,0.00,Wunderground v.1.15,2013-06-06 02:08:00,
2013-06-05 22:14:00,69.7,59.1,30.06,East,90,2.0,7.0,69,0.00,,,0.00,Wunderground v.1.15,2013-06-06 02:14:00,
2013-06-05 22:20:00,69.5,58.9,30.07,East,96,2.0,2.0,69,0.00,,,0.00,Wunderground v.1.15,2013-06-06 02:20:00,
2013-06-05 22:26:00,69.3,58.7,30.07,SE,142,2.0,7.0,69,0.00,,,0.00,Wunderground v.1.15,2013-06-06 02:26:00,
2013-06-05 22:32:00,69.0,58.4,30.07,ESE,105,1.0,3.0,69,0.00,,,0.00,Wunderground v.1.15,2013-06-06 02:32:00,
2013-06-05 22:38:00,68.8,58.2,30.07,SSE,159,2.0,7.0,69,0.00,,,0.00,Wunderground v.1.15,2013-06-06 02:38:00,
2013-06-05 22:44:00,68.6,58.0,30.07,South,182,1.0,7.0,69,0.00,,,0.00,Wunderground v.1.15,2013-06-06 02:44:00,
2013-06-05 22:50:00,68.4,58.2,30.07,ESE,118,1.0,7.0,70,0.00,,,0.00,Wunderground v.1.15,2013-06-06 02:50:00,
2013-06-05 22:56:00,68.1,57.5,30.06,ESE,113,2.0,7.0,69,0.00,,,0.00,Wunderground v.1.15,2013-06-06 02:56:00,
2013-06-05 23:02:00,68.0,57.4,30.07,SE,142,2.0,7.0,69,0.00,,,0.00,Wunderground v.1.15,2013-06-06 03:02:00,
2013-06-05 23:08:00,67.8,57.3,30.07,SE,126,1.0,7.0,69,0.00,,,0.00,Wunderground v.1.15,2013-06-06 03:08:00,
2013-06-05 23:14:00,67.7,57.2,30.07,SSE,147,0.0,7.0,69,0.00,,,0.00,Wunderground v.1.15,2013-06-06 03:14:00,
2013-06-05 23:20:00,67.5,57.0,30.07,SE,141,1.0,1.0,69,0.00,,,0.00,Wunderground v.1.15,2013-06-06 03:20:00,
2013-06-05 23:26:00,67.3,56.8,30.07,SE,133,1.0,7.0,69,0.00,,,0.00,Wunderground v.1.15,2013-06-06 03:26:00,
2013-06-05 23:32:00,67.1,56.6,30.07,SE,133,1.0,7.0,69,0.00,,,0.00,Wunderground v.1.15,2013-06-06 03:32:00,
2013-06-05 23:38:00,66.9,56.4,30.06,SE,133,0.0,7.0,69,0.00,,,0.00,Wunderground v.1.15,2013-06-06 03:38:00,
2013-06-05 23:44:00,66.7,56.6,30.06,SE,133,0.0,7.0,70,0.00,,,0.00,Wunderground v.1.15,2013-06-06 03:44:00,
2013-06-05 23:50:00,66.4,56.3,30.07,SE,133,0.0,7.0,70,0.00,,,0.00,Wunderground v.1.15,2013-06-06 03:50:00,
2013-06-05 23:56:00,66.1,56.8,30.06,SE,133,0.0,7.0,72,0.00,,,0.00,Wunderground v.1.15,2013-06-06 03:56:00,